Notices

What's New in latest Release from April 7th, 2021:

- Updated Glossary, including Speed of Maximum Gust, and Total Hourly Precipitation

- Updated national and regional climate services offices contacts and prices information

- Addition of station inventory lists for 1981-2010, 1971-2000, and 1961-1990 Normals.

If you haven't already, please take our survey and provide feedback about our website: https://eccc.sondage-survey.ca/f/LanguageSelection.aspx?s=442ca660-fcf1-47c0-95a9-59707d6fd709

Hourly Data Report for February 19, 2021

OTTAWA INTL A
ONTARIO
Current Station Operator: NAVCAN

45°19'00.000" N
75°40'00.000" W
114.90 m
6106001
71628
YOW

Download Data

Hourly Data (February 2021)
Hourly Data Report for February 19, 2021
TIME
LST
Temp Definition
°C
Dew Point Definition
°C
Rel Hum Definition
%
Precip. Amount Definition
mm

Wind Dir Definition
10's deg

Wind Spd Definition
km/h
Visibility Definition
km
Stn Press Definition
kPa
Hmdx Definition


Wind Chill Definition


Weather Definition


00:00 -9.2 -13.5 71   6 9 24.1 101.29   -14 LegendNANA
01:00 -9.8 -13.7 74   5 14 24.1 101.24   -16 Mostly Cloudy
02:00 -9.4 -13.1 74   6 17 24.1 101.19   -16 LegendNANA
03:00 -9.2 -12.9 75   5 17 24.1 101.18   -16 LegendNANA
04:00 -9.2 -12.5 77   5 18 24.1 101.14   -16 Snow
05:00 -9.6 -12.9 77   5 14 24.1 101.08   -16 LegendNANA
06:00 -9.6 -13.1 76   5 18 24.1 101.03   -17 LegendNANA
07:00 -9.5 -13.4 73   6 17 24.1 100.97   -17 Cloudy
08:00 -9.2 -13.5 71   5 17 16.1 100.97   -16 Snow
09:00 -9.0 -11.9 80   6 20 2.4 100.95   -17 Snow
10:00 -8.3 -11.4 79   6 22 4.8 100.87   -16 Snow
11:00 -7.5 -11.1 76   6 18 12.9 100.82   -14 Snow
12:00 -6.8 -10.8 73   6 18 12.9 100.76   -13 Snow
13:00 -6.7 -10.6 74   6 17 16.1 100.65   -13 Snow
14:00 -6.7 -10.2 76   6 18 16.1 100.60   -13 Snow
15:00 -6.8 -9.4 81   6 13 2.4 100.58   -12 Snow
16:00 -7.1 -8.9 87   6 10 1.6 100.56   -12 Snow
17:00 -7.2 -8.8 89   6 12 1.6 100.53   -13 Snow
18:00 -7.6 -9.0 90   5 5 6.4 100.52   -10 Snow
19:00 -8.1 -9.6 90   4 8 6.4 100.55   -12 Snow
20:00 -9.8 -10.8 92   34 7 12.9 100.54   -14 Snow
21:00 -8.6 -9.5 93   31 10 9.7 100.53   -14 Snow
22:00 -8.6 -9.7 92   28 8 16.1 100.53   -13 Snow
23:00 -8.4 -9.4 92   28 16 16.1 100.50   -15 LegendNANA

Notes on Data Quality.

Legend

  • E = Estimated
  • M = Missing
  • NA = Not Available*
  • [empty] = Indicates an unobserved value
Date modified: